Back to catalog

SL-14 DEB

AlivePO
NORAD 35521·DEBRIS·🇷🇺 Russia

Launched Aug 18, 1987 from Plesetsk Cosmodrome

Loading…

Next Passes (next 24 hours)

TLE

FreshSource: Space-Track

Epoch: Sep 13, 2026, 14:11 UTC

1 35521U 87068CQ  26256.59155387  .00000241  00000-0  18687-3 0  9999
2 35521  82.5580 199.7780 0011268  77.0872  45.0794 13.88887494669220

Track SL-14 DEB in real time with AllMySat

Download on the App Store